Wind_Speed
13 13 13 13 13 13 12 11 10 10 9 9 9 9 10 9 9 9 10 10 10 10 9 9 9 9 9 9 10 9 9 10 11 15 16 9 7 12 12 13 16 16 18 21 21 18 16 16 14 13 12 12 11 12 12 11 9 6 1 1 3 2 2 3 6 4 4 7 10 12 11 10 9 9 14 16 18 21 16 14 15 14 20 22 26 35 33 32
13 13 13 13 13 13 12 11 10 10 9 8 8 9 9 10 10 9 10 11 11 11 9 9 9 9 9 9 10 9 10 10 13 17 12 5 8 14 15 16 19 18 18 20 20 19 20 19 16 14 14 12 9 10 10 8 9 7 1 1 3 3 2 4 9 10 7 9 12 11 10 10 11 13 16 12 13 19 16 15 22 24 23 24 31 34 31 33
14 13 13 13 13 12 12 11 10 10 9 8 8 8 9 10 10 9 9 10 11 11 10 10 9 10 9 9 10 10 10 11 14 15 9 7 10 13 16 19 21 20 17 17 19 18 19 19 16 16 15 11 8 9 8 7 7 7 3 1 4 4 1 7 16 15 11 15 15 11 12 12 10 12 13 13 14 14 12 15 22 26 28 32 33 33 33 32
14 14 14 13 13 12 12 11 10 10 9 8 7 7 8 9 10 10 9 9 10 11 11 10 10 10 9 9 9 9 10 10 9 8 6 7 10 13 17 20 22 21 18 16 18 18 18 16 15 16 14 8 8 9 7 9 7 5 6 2 3 3 3 9 19 19 14 17 17 15 15 11 9 10 13 19 15 7 12 21 25 30 34 35 35 35 34 31
15 15 15 15 14 14 13 12 11 10 10 9 8 7 7 8 9 10 10 10 11 11 11 10 11 10 9 8 8 8 7 5 3 8 7 6 8 11 17 21 22 22 19 17 18 19 17 15 14 14 11 5 6 6 6 14 11 2 6 5 5 2 4 11 20 22 18 16 17 16 13 11 11 11 14 17 10 7 17 26 30 36 37 37 37 36 34 33
16 17 17 17 16 15 15 14 12 11 10 9 8 7 7 8 9 9 10 11 12 12 11 9 10 11 9 7 8 7 5 1 7 11 7 5 8 10 16 22 23 21 21 18 18 19 18 17 14 11 8 4 5 5 6 16 15 3 4 5 5 3 6 14 23 23 20 18 16 14 12 14 14 10 11 10 7 12 21 27 32 36 37 37 36 35 35 34
17 17 18 18 17 17 16 15 14 12 10 9 7 7 7 7 8 9 11 12 13 12 11 9 9 10 8 7 7 7 9 7 8 9 5 4 6 11 17 23 23 22 24 22 20 20 20 18 14 11 5 3 5 7 8 14 17 8 4 3 3 7 10 17 23 22 20 19 16 16 15 13 11 9 7 5 8 14 21 28 33 34 35 35 34 34 34 33
18 18 18 18 18 18 18 17 15 13 11 8 7 6 6 6 8 10 11 13 13 12 10 8 8 10 8 7 6 6 11 8 7 5 4 5 5 11 19 24 23 22 24 24 23 22 21 18 15 11 4 4 6 6 7 8 9 8 5 1 7 10 12 19 22 20 19 19 19 19 14 10 11 11 6 3 8 16 23 31 33 33 34 33 33 33 33 32
19 20 19 19 19 18 18 18 16 13 11 8 6 5 5 6 8 10 11 13 12 10 8 7 8 9 8 7 5 5 7 5 7 5 5 4 3 6 13 20 23 22 23 25 24 23 22 20 18 14 6 7 10 8 7 5 4 10 8 3 11 12 13 19 20 17 17 18 22 20 12 12 15 12 5 1 12 22 28 32 33 34 33 32 32 32 32 32
20 20 21 20 20 19 19 18 16 14 11 8 6 5 5 7 9 10 12 13 11 9 6 6 7 7 8 7 3 2 3 5 8 7 4 2 0 2 5 12 19 22 23 24 26 26 25 22 19 16 9 8 10 9 8 7 3 9 10 6 12 14 12 17 17 16 17 16 21 19 10 12 15 10 2 7 18 25 30 32 33 34 32 31 31 31 32 32
20 20 21 21 20 20 19 18 16 13 10 7 6 6 7 8 10 11 12 13 11 8 5 5 6 7 7 7 6 4 4 6 8 8 4 2 2 3 4 7 12 19 24 25 27 28 26 21 17 13 6 6 7 8 6 7 2 11 19 11 10 12 10 13 13 16 16 14 22 20 10 9 9 4 5 15 22 27 33 32 31 32 30 30 31 31 32 32
18 19 20 20 21 20 20 19 16 12 9 8 8 8 9 10 11 13 13 12 10 7 5 3 4 7 7 10 13 8 5 6 8 7 5 4 3 5 5 7 9 14 21 25 27 28 25 20 17 13 6 4 7 7 3 5 2 20 23 9 6 8 5 5 9 16 12 14 27 23 10 5 2 1 8 20 23 27 33 32 30 29 29 29 30 31 31 31
16 17 18 19 19 19 19 17 15 11 9 9 10 10 10 11 13 14 14 12 9 7 5 3 3 6 7 10 10 8 7 6 6 8 8 6 4 6 9 10 9 11 16 22 24 25 25 21 17 13 10 8 7 6 7 8 6 18 14 7 6 3 1 3 4 12 9 16 28 16 5 3 2 4 12 23 26 27 31 30 29 27 27 28 29 31 31 31
15 16 17 17 18 18 17 15 13 11 10 9 9 10 11 12 13 13 12 11 9 7 5 3 4 5 7 10 5 8 10 9 10 10 9 9 7 7 11 13 12 13 15 17 19 22 23 20 15 11 12 11 10 9 9 3 7 11 6 5 4 1 4 4 4 7 8 16 19 4 1 5 5 7 13 24 29 29 29 29 29 27 27 28 29 31 31 31
14 15 16 16 16 16 15 12 10 8 8 8 9 11 13 13 13 11 10 9 8 6 5 4 5 6 10 11 4 7 10 11 12 10 8 10 9 6 9 14 14 14 15 15 17 18 18 17 13 10 12 14 11 7 5 2 3 4 5 2 2 2 4 3 4 6 5 11 11 1 3 4 4 8 15 24 30 30 27 27 30 28 27 29 29 30 30 31
14 14 15 16 16 15 13 10 8 6 6 8 9 12 14 13 11 8 7 7 7 6 6 5 5 7 9 8 3 5 7 9 9 9 10 10 8 5 6 13 13 13 13 13 15 15 15 13 10 11 12 10 4 2 2 3 1 2 3 3 4 3 3 2 4 8 5 7 5 0 4 3 3 10 16 24 29 28 25 26 29 28 28 30 29 30 30 29
14 15 14 15 15 14 11 8 6 5 7 10 11 14 15 13 10 7 5 6 6 7 8 7 8 10 7 2 0 1 1 5 6 8 10 9 8 5 7 13 12 12 11 10 11 13 13 10 7 7 8 5 2 4 4 3 5 4 1 3 3 3 5 4 3 8 7 8 6 2 5 3 5 12 16 23 28 25 24 26 27 25 27 30 29 29 30 30
14 15 14 14 13 13 10 6 6 6 8 11 11 13 12 11 11 7 5 6 8 8 8 6 6 7 4 2 3 4 6 5 7 8 8 9 9 8 10 12 10 10 8 6 8 10 10 8 4 2 3 4 3 4 4 4 6 5 3 3 2 2 5 4 3 9 11 8 7 6 6 5 6 13 16 22 27 25 24 28 27 23 23 29 30 29 30 30
13 14 14 14 12 11 8 5 5 6 8 9 10 12 10 10 11 6 5 7 9 6 5 5 5 3 5 9 10 9 12 6 8 10 9 9 11 12 11 8 7 9 7 3 5 9 9 4 3 3 3 5 4 6 5 2 5 5 3 4 6 4 4 4 1 7 13 8 6 6 6 7 9 11 14 21 27 24 23 26 26 21 19 27 30 29 30 30
13 13 14 14 11 9 7 6 6 7 8 8 11 11 8 8 7 3 7 13 13 10 11 12 12 13 15 15 11 11 11 3 8 13 11 9 11 14 14 10 6 8 6 4 4 6 8 4 4 5 5 6 5 6 6 2 3 3 3 4 8 7 6 5 2 5 13 7 2 5 7 10 12 11 12 20 24 20 19 21 22 19 19 24 29 30 30 30
13 13 13 13 11 9 7 7 7 8 8 9 11 10 8 8 5 5 11 15 17 15 14 13 12 15 16 12 10 13 12 4 6 12 12 10 11 12 14 11 5 4 4 4 3 3 6 5 6 7 7 7 5 5 6 2 1 1 4 4 6 6 3 3 4 6 11 6 2 6 8 10 12 10 11 17 19 18 22 23 21 20 19 22 26 30 31 29
13 13 12 13 11 10 9 7 7 8 9 9 10 12 13 12 8 10 11 11 18 19 13 9 10 13 13 11 10 12 10 5 6 10 10 11 13 11 10 7 4 3 3 2 1 0 3 5 7 7 5 4 3 4 6 3 3 2 3 4 4 4 2 4 6 8 8 3 2 6 7 7 9 9 10 13 14 17 25 25 22 19 19 23 24 27 31 29
14 12 12 11 10 11 10 8 7 7 8 7 10 12 14 14 10 10 8 8 15 17 9 8 11 12 12 11 7 7 6 4 6 8 9 10 15 15 10 6 4 4 2 3 4 2 3 6 7 7 4 2 2 2 5 2 1 2 4 4 3 6 5 2 5 9 5 3 5 8 6 4 5 7 9 12 10 12 20 22 18 16 18 24 25 24 30 32
14 12 11 11 9 10 10 7 6 7 7 5 8 11 11 13 10 7 7 6 7 9 5 7 10 12 12 8 3 4 5 6 8 7 9 11 14 13 9 6 5 3 3 4 6 4 5 7 4 4 3 3 3 2 3 3 2 1 4 4 3 7 4 3 7 8 4 4 8 10 5 1 4 6 6 8 10 11 15 17 14 12 15 23 26 23 26 32
14 12 11 10 9 9 10 7 5 8 8 4 7 10 10 11 9 6 7 3 2 6 5 4 8 9 7 6 5 5 3 5 9 8 10 13 13 8 5 5 5 3 3 4 5 4 7 9 2 2 2 3 3 4 3 5 2 2 4 7 7 8 5 8 11 8 4 1 6 9 4 2 4 5 5 5 8 10 13 17 15 12 14 22 27 24 24 30
14 13 11 10 9 8 9 7 7 10 8 4 7 10 9 10 8 7 7 4 1 5 4 2 4 4 4 4 4 3 0 2 7 9 11 14 12 7 4 3 2 3 4 4 3 2 4 6 3 3 4 3 4 5 4 7 4 1 5 7 8 8 10 13 13 8 3 3 6 7 3 1 3 4 6 5 7 10 11 15 17 16 16 22 27 25 23 28
14 13 12 11 10 9 9 9 9 11 8 6 9 8 7 9 9 8 5 4 3 4 2 2 2 2 3 3 3 6 1 2 4 8 11 13 13 9 5 2 1 3 3 3 2 3 4 5 4 4 4 4 4 5 4 7 6 3 5 6 10 10 13 16 13 7 3 4 5 6 3 3 3 4 6 7 9 10 9 11 15 18 20 24 28 25 22 27
14 13 12 12 12 11 11 11 11 10 8 8 10 8 9 11 9 4 3 4 3 3 2 3 3 4 5 4 4 6 1 1 1 5 10 13 12 8 4 4 5 3 3 4 4 4 3 6 6 6 5 4 5 6 6 8 5 6 4 8 11 12 14 15 10 4 4 5 3 7 4 3 2 3 6 8 10 12 13 14 15 20 24 27 29 27 21 24
15 14 13 12 12 12 12 13 12 8 7 10 11 11 14 11 4 2 4 2 2 3 2 2 3 5 6 3 4 6 3 1 1 4 9 12 13 7 2 7 7 3 3 4 5 5 3 7 8 7 5 5 6 7 7 9 6 6 5 8 7 8 10 9 5 2 4 4 4 9 7 2 1 3 7 8 10 13 14 14 16 22 28 30 31 29 24 24
15 14 13 12 12 12 12 11 8 6 8 11 12 15 15 7 1 4 4 2 1 3 4 2 3 3 3 1 2 4 3 3 4 4 5 8 12 7 2 5 5 1 2 1 4 6 7 10 8 5 7 8 8 8 10 12 9 3 4 4 3 3 4 4 3 3 4 2 6 10 11 4 1 4 9 8 8 12 13 11 15 21 27 32 33 32 28 26
14 14 13 11 11 12 12 7 4 6 9 11 15 17 10 2 3 5 2 2 1 4 6 3 2 1 3 2 1 2 1 3 4 4 4 3 5 3 1 1 1 2 3 4 3 5 6 7 6 6 12 12 7 6 10 12 9 4 4 4 5 3 4 4 4 4 2 4 5 8 11 5 2 4 9 8 4 8 14 13 15 20 25 32 34 33 31 28
12 13 12 10 10 11 10 5 5 8 9 12 19 16 4 2 4 2 1 3 2 4 5 3 3 2 2 2 1 2 1 2 1 4 4 2 2 2 2 2 2 1 3 2 2 4 3 5 4 5 11 12 7 3 5 6 6 5 4 5 5 2 1 2 2 2 2 5 4 6 9 4 5 5 7 10 7 7 14 16 18 22 25 30 34 35 33 29
11 12 11 9 10 10 7 4 6 9 10 15 18 11 3 5 3 1 2 2 2 4 4 3 5 3 2 3 4 3 1 2 1 2 2 3 2 1 1 0 2 3 1 3 2 4 2 5 4 2 6 9 9 5 4 4 5 6 6 6 5 4 3 2 1 1 3 5 3 7 9 3 5 3 1 7 10 11 15 18 21 26 29 31 34 34 30 27
10 10 8 7 7 7 5 2 5 8 12 16 14 5 6 4 1 2 2 3 3 3 3 3 5 6 6 4 4 4 2 1 2 5 4 4 3 2 3 4 2 1 2 2 2 1 2 4 5 4 4 6 9 8 7 5 5 6 6 6 5 5 4 4 4 3 3 3 1 7 7 2 2 2 5 6 11 16 17 18 21 26 29 29 29 27 24 22
8 7 5 5 6 7 5 3 5 8 12 15 9 5 6 1 3 1 2 4 2 3 4 4 5 6 5 3 5 6 4 3 5 7 4 3 3 1 1 3 4 2 2 2 2 1 3 4 7 5 4 4 7 7 7 7 4 3 4 6 4 6 6 4 5 7 3 2 2 4 3 3 3 3 7 4 6 12 13 14 18 22 24 23 23 22 19 13
6 4 5 6 6 6 5 4 5 7 11 11 7 4 2 2 3 2 2 2 1 3 4 5 6 5 4 4 5 7 6 4 5 5 2 2 2 2 2 3 3 3 1 3 2 0 1 4 6 4 4 5 8 8 7 7 5 2 3 4 4 5 7 5 3 2 3 3 1 1 1 4 1 3 7 6 7 8 9 11 14 18 21 20 17 15 13 10
4 3 6 6 6 7 6 5 4 7 9 7 5 1 2 3 4 4 2 0 1 2 4 4 4 3 2 3 3 6 6 4 4 3 2 2 2 3 4 4 2 2 1 3 2 1 2 3 6 2 2 6 6 8 6 5 6 5 3 5 3 2 3 4 3 2 4 2 1 1 1 3 1 1 4 5 8 7 6 9 11 14 17 17 17 16 14 14
4 3 5 4 6 8 7 5 5 6 6 5 2 2 1 2 3 4 3 1 2 3 5 3 0 1 1 1 2 5 4 3 3 2 2 3 1 1 3 4 3 5 7 3 1 0 2 1 7 2 2 6 2 6 4 2 2 5 5 3 3 3 1 1 4 3 3 3 1 2 2 1 1 2 2 4 5 6 7 9 10 13 17 20 20 18 17 18
7 5 2 3 7 8 7 6 7 4 3 4 1 2 1 2 4 5 6 2 3 4 3 1 0 1 2 1 1 3 4 2 2 2 2 2 1 1 3 2 4 9 12 5 2 2 1 2 4 4 1 3 3 4 2 2 3 3 3 2 1 3 3 2 3 3 4 4 2 1 2 2 3 2 1 1 1 4 8 8 8 14 19 22 23 21 20 21
7 4 1 3 7 9 8 9 7 0 2 0 2 2 2 3 5 11 12 3 1 3 1 2 1 2 2 2 1 2 3 2 1 2 1 0 0 2 3 2 3 8 9 4 3 1 1 2 2 5 4 0 1 0 4 5 2 3 3 2 0 1 1 2 1 2 4 4 3 2 1 3 3 2 3 3 1 3 9 9 9 14 19 21 23 23 21 22
5 3 1 2 6 9 9 8 4 2 1 1 2 3 3 1 3 11 15 9 3 3 2 3 2 2 1 2 3 2 2 3 3 3 1 1 1 0 4 6 4 5 6 4 3 2 1 2 1 3 4 2 2 4 3 5 5 5 4 1 3 2 2 4 1 1 2 4 4 5 3 4 3 1 2 4 2 4 10 13 13 16 20 21 21 19 18 19
4 1 1 1 5 10 10 5 1 1 2 1 2 3 2 1 2 8 13 12 8 4 2 2 2 2 2 1 2 2 3 3 4 2 1 1 2 1 7 14 11 5 2 1 3 3 1 2 2 2 2 2 6 6 3 2 3 5 4 1 3 3 3 4 3 2 2 4 2 3 2 3 3 1 2 4 7 8 12 17 17 17 20 22 21 20 18 16
5 3 3 1 5 11 8 1 3 1 2 2 2 2 2 3 3 6 9 9 7 5 4 2 1 3 3 0 2 3 3 3 3 3 1 2 4 5 12 19 15 6 3 2 3 3 1 2 3 3 4 4 5 6 4 5 6 5 3 2 2 1 2 4 5 3 4 4 2 3 1 3 2 2 4 8 13 14 13 18 21 20 19 21 22 21 20 18
6 5 6 4 6 12 7 2 2 2 3 2 1 2 4 6 6 6 6 5 5 3 2 2 1 3 1 1 3 3 1 3 3 3 2 1 4 10 16 21 17 7 4 2 2 2 3 1 2 2 2 4 6 6 7 7 5 3 3 4 3 3 5 4 2 3 3 3 4 5 2 3 0 3 5 9 13 13 13 16 21 21 21 21 21 20 19 18
4 3 6 6 8 12 6 3 4 3 1 1 2 2 3 4 5 8 6 5 7 6 3 3 2 3 2 2 4 4 3 4 2 3 3 1 3 8 15 19 17 10 8 8 4 2 2 2 2 3 3 2 2 2 3 4 3 2 3 5 6 4 4 3 2 4 2 3 4 5 3 2 2 4 5 7 10 11 12 15 18 21 22 21 20 19 18 17
4 2 5 6 6 7 3 4 2 3 3 3 2 3 4 2 3 10 11 6 7 10 8 6 5 5 5 4 4 4 6 5 3 2 3 4 3 4 9 15 18 17 15 16 12 3 3 4 4 5 4 3 4 4 5 3 2 3 4 6 7 5 3 4 4 2 3 5 2 2 5 8 7 7 8 8 8 9 11 14 16 19 20 20 20 19 17 16
4 2 3 4 3 1 4 5 4 2 3 4 2 1 3 2 2 7 9 5 6 8 7 7 7 4 3 3 4 3 5 5 5 4 3 4 3 4 8 11 17 21 17 15 15 5 4 5 6 3 3 0 2 2 4 2 1 1 4 6 7 8 5 5 4 4 7 7 1 5 9 13 12 11 10 9 8 8 10 14 17 19 20 20 20 19 18 17
3 1 1 3 2 1 2 6 6 6 5 5 3 1 2 4 3 3 3 4 7 7 4 5 7 5 3 2 3 2 5 5 5 4 3 4 3 4 9 8 10 18 16 11 11 6 5 3 5 3 4 5 7 7 5 3 1 2 5 7 8 9 5 5 3 2 6 5 4 8 12 11 10 11 9 8 10 12 13 17 20 21 21 21 20 19 18 17
4 1 2 5 2 4 4 7 4 6 6 3 3 2 2 4 3 1 2 3 5 6 5 4 5 6 6 5 5 3 3 3 3 4 2 3 4 3 5 5 7 15 14 7 6 5 4 3 3 3 3 7 11 10 7 5 5 6 8 9 9 8 5 6 4 4 5 4 6 12 11 3 3 7 9 11 15 18 20 21 21 21 21 20 20 19 17 17
6 3 4 6 4 5 8 7 1 5 4 3 3 2 2 3 3 1 3 4 2 4 5 4 1 2 5 7 6 3 1 4 3 2 1 1 3 2 2 1 4 9 10 4 4 5 4 4 1 2 3 5 10 11 9 6 7 8 10 13 13 10 6 6 4 4 7 7 8 12 10 3 1 7 14 17 19 21 22 21 21 21 21 21 20 19 17 16
5 5 7 6 3 6 9 6 2 4 2 2 2 1 1 1 2 3 4 5 3 1 2 5 4 2 5 7 6 2 1 3 3 3 2 1 2 1 1 1 1 4 6 4 4 5 4 3 1 3 3 3 7 10 9 7 7 10 12 14 14 10 4 2 1 0 5 10 11 9 7 4 5 10 16 18 20 20 20 21 22 21 22 22 22 20 19 17
4 3 6 4 1 5 6 4 3 4 2 1 2 3 1 0 0 4 4 5 5 6 6 6 6 4 4 5 4 5 7 7 6 7 6 3 2 5 6 7 7 5 3 2 2 3 2 3 2 3 2 3 7 8 6 5 6 6 7 8 9 8 4 2 4 4 4 11 10 5 5 6 8 12 13 13 15 18 19 23 25 25 24 24 23 22 20 19
Wind_Direction
343 342 341 342 345 347 346 345 344 343 346 347 349 350 347 342 333 328 323 318 313 309 307 302 291 283 283 285 280 275 270 265 264 260 252 243 214 216 210 197 193 190 185 184 186 184 188 187 175 176 181 187 202 209 208 220 220 197 183 229 249 235 197 188 159 141 114 140 162 165 161 144 135 136 122 119 126 129 129 125 128 131 139 149 152 152 154 154
345 344 342 343 344 343 342 340 339 336 334 335 339 342 342 341 333 326 321 318 313 308 306 303 296 285 285 288 288 286 281 273 264 256 246 218 202 208 202 190 190 190 187 190 190 186 188 183 175 176 179 189 206 211 210 210 201 192 176 239 243 227 182 152 136 134 144 153 152 154 157 146 137 140 136 127 124 125 119 121 124 122 132 146 150 153 156 157
349 347 345 346 345 342 339 336 334 329 327 327 327 333 335 334 331 324 317 315 314 310 305 304 299 290 285 287 294 296 294 290 273 259 239 210 206 204 199 192 190 189 186 189 190 189 189 180 178 179 180 196 210 204 203 198 197 203 211 286 250 233 70 115 131 139 158 153 143 142 143 138 135 140 141 133 124 124 126 136 135 131 138 148 153 157 158 159
355 355 354 354 352 349 344 339 334 328 327 325 322 325 324 325 324 318 310 309 311 311 307 303 299 293 287 287 296 300 305 308 280 239 207 204 208 205 198 191 192 191 182 182 188 189 186 181 181 181 182 209 223 207 201 197 190 188 196 240 268 229 66 110 131 138 151 150 141 137 134 131 141 142 140 136 127 131 150 153 150 145 148 153 156 158 159 163
3 3 2 1 360 357 353 347 341 335 332 328 325 320 318 319 318 314 307 305 305 307 306 300 298 293 287 285 294 298 311 331 208 174 166 179 195 205 197 190 194 193 181 179 186 187 185 177 175 183 191 220 220 204 208 201 195 198 219 236 284 273 91 118 132 137 145 142 133 133 134 137 140 136 143 143 135 159 161 161 157 151 152 156 157 158 161 165
6 4 2 1 0 359 357 354 349 345 340 335 329 322 323 321 319 315 306 303 301 304 303 297 293 290 286 281 292 291 288 278 164 157 148 161 183 192 192 191 194 195 187 182 186 189 189 178 174 186 197 227 217 213 221 201 198 235 260 243 258 225 118 126 134 138 143 138 138 141 135 135 130 125 148 142 121 153 163 163 157 152 154 156 158 160 163 167
3 0 359 358 357 358 357 356 355 354 354 348 337 332 332 325 319 313 306 304 302 304 303 295 286 286 285 275 286 284 273 255 172 155 143 137 162 173 183 190 192 196 193 189 190 191 192 186 183 189 195 240 219 227 229 199 195 211 275 270 174 140 130 135 137 141 144 140 141 137 127 129 130 130 146 110 106 149 165 162 156 153 155 157 159 162 166 169
359 356 355 354 354 355 356 357 358 359 4 2 353 349 338 322 314 313 313 311 309 309 304 293 282 281 279 269 282 285 277 256 173 158 156 132 119 156 178 190 191 196 196 194 192 191 194 191 189 190 195 243 232 241 229 195 190 208 247 248 126 122 129 135 138 141 143 140 133 125 115 108 121 125 109 57 113 143 160 160 157 156 156 159 162 164 168 170
358 355 354 353 354 355 355 357 358 2 11 13 8 357 339 325 322 323 323 323 319 315 306 293 279 277 272 260 275 288 279 227 177 177 159 145 99 141 176 191 194 196 196 196 193 190 195 194 193 192 191 246 254 260 227 180 198 216 218 160 122 126 133 135 138 141 142 139 126 116 103 99 120 121 74 134 142 143 157 160 158 159 159 162 164 168 171 172
359 356 354 352 354 356 357 358 359 6 16 21 13 356 342 335 334 333 334 336 330 319 309 288 276 274 265 249 234 257 236 173 177 182 161 158 152 167 185 193 200 201 199 198 195 192 194 194 196 199 214 263 264 266 230 184 230 213 177 124 119 126 134 138 138 138 137 134 123 118 115 119 137 139 112 177 152 147 156 158 160 161 162 165 168 171 174 175
1 357 353 352 352 354 356 359 6 14 21 20 10 357 349 344 342 339 341 345 339 330 315 288 277 266 259 239 215 211 190 164 173 177 172 199 275 286 231 204 207 205 203 201 198 194 192 192 192 197 224 271 284 296 242 194 212 145 135 106 96 104 118 138 135 136 133 129 127 120 108 118 138 142 161 164 154 153 157 157 162 164 165 168 170 173 176 178
3 359 355 352 349 350 354 1 12 20 19 13 9 3 356 351 348 342 346 350 347 345 325 296 279 258 258 252 238 218 170 160 168 180 191 210 266 288 248 226 217 210 208 204 200 195 191 193 192 200 233 292 314 324 301 272 175 138 134 111 90 94 111 150 142 147 142 128 131 123 102 102 122 131 158 156 153 157 158 159 164 166 168 170 172 174 177 179
4 -0 357 353 348 347 350 359 11 16 15 13 12 6 356 350 345 341 346 352 356 0 352 336 301 279 274 265 243 197 182 190 195 203 203 207 229 231 219 219 218 213 211 209 205 197 193 196 199 219 264 302 309 298 302 298 161 141 133 116 121 99 162 238 173 151 135 132 137 131 123 152 185 168 162 159 156 158 159 161 166 169 171 172 174 175 178 181
6 1 359 357 353 348 348 357 7 13 17 15 8 359 349 343 337 335 340 347 354 355 355 353 329 315 282 266 231 183 204 221 225 217 203 209 214 212 205 200 209 208 205 209 208 203 201 204 214 250 278 278 272 288 309 308 137 130 108 107 142 156 172 213 206 145 121 145 151 138 134 169 181 167 169 167 161 159 161 163 168 172 174 175 176 177 180 184
6 2 360 359 358 355 353 1 11 17 19 8 357 348 345 342 332 329 336 342 344 336 338 332 320 321 293 280 252 194 210 216 224 223 208 208 206 219 207 192 198 200 199 204 205 208 209 208 225 257 275 273 265 281 321 26 92 125 124 132 241 153 155 209 221 179 137 151 164 84 116 161 181 170 173 172 165 162 165 167 169 174 177 178 180 180 183 187
6 4 3 0 1 3 2 9 18 17 8 354 347 342 341 341 329 321 330 341 340 333 336 320 300 313 300 284 247 192 208 212 220 227 222 216 211 233 207 187 188 190 195 199 200 207 206 212 240 252 259 270 243 171 50 56 48 221 133 156 195 146 143 186 220 214 176 138 164 65 129 143 176 174 175 174 171 167 169 170 171 176 179 179 181 183 184 188
5 5 7 3 1 5 9 15 13 6 357 348 344 343 340 340 335 318 314 329 328 328 329 307 291 298 285 272 210 169 236 221 220 227 229 227 224 226 186 179 177 179 185 186 197 209 209 219 246 251 246 239 155 112 94 129 186 226 110 134 174 145 157 162 185 206 184 152 169 118 133 164 159 165 175 180 177 172 172 174 174 176 178 179 181 182 183 187
1 4 7 4 -0 4 13 13 4 3 356 347 341 342 339 340 345 320 281 308 314 323 325 295 298 307 269 312 335 325 336 296 237 235 241 233 215 209 190 174 165 170 171 171 195 204 210 225 219 214 238 204 154 126 151 179 172 176 157 117 114 143 184 190 160 179 174 167 171 137 141 174 150 155 172 182 182 179 176 175 175 174 176 179 181 183 185 188
355 1 4 4 358 358 8 7 358 354 350 346 338 337 336 340 344 314 270 298 298 312 326 279 274 293 272 293 307 322 333 306 230 224 233 227 204 204 201 176 168 170 150 140 198 196 191 214 204 181 215 209 184 158 172 159 120 131 141 138 148 169 213 203 144 167 163 157 170 156 153 166 161 160 167 179 185 183 178 175 176 178 181 183 184 186 188 190
346 355 0 4 355 346 356 357 352 351 350 349 339 337 333 334 341 312 298 300 293 297 303 289 274 272 279 288 304 330 336 304 219 214 213 223 209 206 207 196 178 167 147 140 190 197 178 189 226 202 203 209 191 165 169 130 90 96 107 149 169 178 207 188 123 161 158 148 167 159 153 163 170 168 163 175 181 179 179 177 180 186 188 187 187 187 189 192
337 346 354 1 356 341 338 338 344 354 355 352 351 352 344 337 340 327 321 312 310 311 303 300 287 274 278 288 311 329 329 319 245 218 204 219 213 204 208 202 162 157 192 179 182 193 169 195 233 214 203 201 185 159 159 141 127 110 109 147 179 181 199 152 125 157 157 138 122 141 147 166 174 168 160 170 175 177 183 184 187 191 189 191 191 189 191 193
328 337 346 356 358 344 334 330 335 347 356 2 12 16 7 360 339 314 322 311 311 318 309 298 288 274 279 297 318 323 309 290 272 232 204 208 205 200 199 183 148 181 201 158 175 232 177 229 240 221 209 198 187 140 132 135 177 189 120 140 177 173 113 92 134 159 154 130 138 142 148 167 170 161 160 171 178 184 187 186 190 193 190 193 195 191 191 191
320 328 337 348 354 346 339 334 333 345 357 7 19 19 11 6 345 307 306 289 300 316 307 269 270 274 287 306 328 327 296 249 253 230 202 201 197 195 186 153 146 187 168 140 167 165 200 245 235 215 205 183 241 146 117 118 191 164 146 144 180 178 149 104 160 161 140 108 137 138 135 154 164 161 163 168 171 178 186 188 192 199 197 196 196 193 190 189
311 318 328 337 345 345 341 336 336 345 346 352 6 4 358 359 356 323 309 289 292 321 315 262 268 279 287 299 312 309 293 239 235 217 194 195 186 182 181 158 142 174 196 165 163 174 232 258 232 177 186 178 233 252 130 151 256 215 177 180 179 180 161 111 156 147 86 73 127 125 107 177 190 175 164 158 159 168 178 184 194 208 204 197 197 197 193 191
307 307 317 325 332 341 339 332 335 340 341 345 344 343 345 351 358 346 336 336 279 315 334 280 271 280 283 291 281 275 276 224 225 214 195 193 182 165 170 168 150 197 221 152 148 190 248 267 261 140 214 191 214 255 175 162 213 325 223 205 183 174 137 120 145 141 95 137 157 136 123 239 225 191 187 166 165 173 174 184 200 205 197 196 197 201 203 198
310 300 304 312 317 330 330 322 325 331 338 346 337 339 346 349 353 340 342 32 346 307 333 288 265 271 256 270 263 220 299 250 218 209 196 195 193 173 159 172 150 199 203 149 156 209 244 254 209 173 217 200 216 249 197 155 139 327 246 204 170 155 139 141 153 154 148 183 181 163 130 192 235 215 204 188 180 183 177 188 203 203 196 196 198 203 209 202
314 301 295 300 306 315 319 315 317 324 327 331 336 342 342 341 342 330 342 49 3 304 300 254 236 254 247 250 188 156 113 301 229 216 198 191 195 180 168 213 177 197 187 140 212 235 215 230 216 193 197 189 217 243 196 145 135 236 237 163 150 148 151 159 161 161 140 109 161 185 124 117 220 223 188 187 196 195 190 197 203 205 203 199 199 201 204 202
316 305 291 290 298 304 309 308 313 323 321 319 327 331 330 330 324 326 68 73 335 311 312 260 244 263 259 256 215 189 205 316 196 217 200 190 192 177 172 197 170 196 194 145 220 257 201 211 218 199 198 203 214 226 189 151 164 243 209 151 163 164 163 167 162 149 115 97 160 207 163 109 252 230 165 181 201 198 199 205 201 201 203 200 198 198 198 198
315 307 293 286 287 293 299 303 314 327 314 314 322 326 331 329 318 70 87 79 313 308 316 285 287 270 246 255 239 221 245 304 172 198 195 190 195 186 186 205 186 213 233 167 209 254 227 224 219 184 193 216 214 220 186 164 199 237 179 166 179 167 158 154 141 112 108 115 205 206 187 151 247 204 165 179 208 206 198 201 202 198 198 199 198 198 197 193
315 305 296 284 278 285 291 298 314 320 312 318 324 328 334 334 83 73 48 18 328 300 304 286 280 256 202 62 290 240 233 242 230 208 187 176 190 196 172 202 193 177 276 258 227 247 259 259 251 197 204 214 208 211 189 184 202 180 123 148 121 76 92 91 39 33 93 189 233 202 190 175 191 200 181 187 206 198 189 190 198 197 197 198 199 200 198 191
314 303 295 283 274 277 282 297 323 314 314 323 326 331 341 6 83 80 59 333 324 312 324 303 253 228 157 143 268 256 195 243 235 179 169 137 169 201 87 158 202 50 341 333 291 270 266 260 254 214 217 212 194 207 199 194 198 151 103 124 107 50 25 43 8 16 101 235 250 196 185 181 229 223 201 211 210 178 188 191 191 193 195 198 200 202 199 192
314 299 291 280 269 264 268 291 320 314 319 328 330 332 352 78 29 72 263 323 340 311 318 296 280 278 193 168 292 255 183 259 247 135 154 121 123 185 149 187 194 85 325 289 287 309 281 234 230 218 224 206 169 198 218 190 174 155 134 129 125 101 28 49 -0 358 207 247 257 169 164 183 246 240 203 209 209 184 194 197 190 189 192 197 200 201 199 196
310 294 287 276 261 249 247 273 307 314 324 332 333 337 75 82 32 302 276 309 302 288 293 298 312 334 97 60 345 304 263 252 217 95 74 90 104 180 55 338 160 131 241 223 264 336 318 272 259 214 234 206 172 175 208 183 166 164 154 153 153 134 133 146 102 321 252 257 263 150 156 209 260 259 251 219 207 188 192 196 190 189 193 198 201 199 201 202
309 294 281 265 239 219 212 248 303 313 325 336 342 12 73 65 298 309 320 257 257 294 301 312 341 21 55 50 341 351 28 340 51 58 24 39 54 18 12 354 5 113 194 209 259 180 153 260 243 198 223 195 177 186 184 157 156 175 159 150 160 152 150 155 165 209 238 258 155 140 159 228 225 237 307 271 205 180 184 193 186 188 194 196 198 200 205 208
315 288 254 226 201 189 187 235 292 308 326 343 2 60 73 57 249 296 288 249 275 320 313 342 30 41 30 1 341 11 37 13 48 62 20 20 65 34 323 318 345 27 139 178 247 192 150 241 247 243 247 184 176 190 162 127 135 200 144 122 161 179 159 146 182 196 176 108 127 145 185 248 211 263 326 336 167 155 158 171 171 179 188 189 192 198 201 202
324 276 220 206 197 184 185 234 275 307 331 357 34 63 80 207 213 200 235 240 316 322 329 4 34 44 8 357 347 352 11 26 51 66 14 26 73 26 338 273 327 25 129 179 223 219 116 264 277 291 278 216 184 175 155 153 173 180 132 153 201 181 146 132 181 192 104 112 193 133 288 299 310 328 353 43 90 102 118 137 148 161 172 176 173 169 169 177
329 268 231 216 191 183 194 230 269 306 335 23 74 102 239 216 197 195 239 15 38 356 52 47 19 40 11 351 338 335 353 18 33 47 31 28 22 -0 342 282 299 41 273 233 208 177 138 269 291 288 250 258 202 157 141 151 147 128 165 199 190 115 112 112 129 95 77 126 251 4 267 296 11 355 341 45 83 83 93 112 121 136 146 144 136 135 142 163
349 298 249 206 178 193 206 225 264 299 342 45 70 272 240 244 238 222 270 8 91 43 65 92 335 95 102 16 318 327 353 19 18 47 62 19 343 331 347 305 317 3 335 322 139 204 110 292 292 260 204 287 310 115 110 15 75 126 160 177 128 132 198 116 141 155 122 137 258 341 332 277 189 211 328 33 87 94 93 102 106 112 116 116 130 153 166 173
347 324 274 165 183 208 218 235 260 292 21 52 320 267 235 270 300 346 352 350 98 74 69 144 187 87 89 108 265 323 13 38 22 72 78 34 14 340 14 322 312 344 345 5 103 280 62 109 278 284 279 290 357 75 158 271 348 60 82 35 67 140 166 159 153 154 135 145 182 356 350 268 229 229 174 103 118 100 99 96 94 105 112 116 130 155 176 187
346 343 49 161 196 213 225 237 249 308 70 72 215 234 275 262 316 12 25 23 117 73 102 214 95 58 25 11 333 335 25 29 26 74 78 0 213 303 347 353 309 331 341 12 80 305 340 92 269 300 339 345 175 200 190 181 150 88 55 9 317 64 122 148 108 100 125 142 163 142 253 259 254 246 167 155 143 92 104 102 95 102 112 123 135 148 165 179
-0 16 44 207 211 219 220 222 226 120 127 244 210 241 289 268 332 12 30 41 43 54 123 159 121 93 56 19 -0 344 28 21 17 66 81 4 81 230 342 358 328 319 347 14 29 3 350 69 286 305 356 40 240 273 218 178 166 144 115 147 185 160 131 128 89 333 110 124 155 154 185 250 271 280 173 143 111 100 108 108 105 106 114 127 139 148 158 168
6 23 101 239 226 215 206 200 229 163 173 229 237 254 299 30 21 10 21 28 32 31 55 117 121 89 85 77 -0 11 62 36 1 39 74 -0 81 121 342 356 353 338 30 31 297 301 218 87 40 290 286 271 271 284 273 162 126 109 99 106 144 131 114 128 168 219 89 82 85 104 133 255 287 351 149 129 108 104 107 108 107 107 114 123 130 136 143 154
349 1 65 38 224 200 187 239 326 299 239 257 270 304 15 42 32 20 20 19 19 20 25 40 92 70 60 72 43 40 61 52 6 8 349 330 21 15 359 10 16 9 45 46 304 320 38 72 28 313 292 310 301 302 346 40 62 62 25 11 63 86 103 137 169 161 121 129 121 79 67 260 279 81 123 122 110 104 106 111 111 109 112 117 122 126 130 139
351 4 50 62 185 185 180 241 264 262 277 288 29 32 49 51 39 33 31 14 2 7 26 5 30 84 68 39 64 32 17 84 32 3 26 332 1 11 14 23 29 21 10 357 283 320 1 35 49 25 355 358 351 349 360 8 32 42 325 323 344 31 89 116 122 76 104 181 157 126 166 250 171 99 119 124 117 112 112 115 116 115 116 118 122 126 129 134
6 2 32 61 154 180 206 245 194 181 239 66 49 21 45 48 38 42 50 38 29 47 59 351 9 75 35 21 58 15 15 81 69 356 30 5 332 4 16 26 31 22 358 350 323 300 26 46 59 84 110 107 52 23 349 328 336 340 314 332 356 29 86 134 118 79 117 185 140 134 167 180 125 124 144 143 127 120 117 116 117 118 120 121 123 128 133 133
31 18 -0 34 123 173 258 287 198 159 144 111 50 13 41 38 7 37 47 43 31 47 53 14 9 53 31 25 58 20 9 39 51 39 29 350 318 334 360 21 28 19 6 8 9 19 114 51 40 88 111 154 185 223 252 266 346 329 321 345 358 4 39 99 110 120 161 145 132 218 166 147 158 170 168 157 137 128 126 123 120 118 121 123 124 128 132 132
42 40 345 4 24 351 345 358 25 73 139 124 108 354 37 31 336 28 43 44 29 43 52 23 16 47 32 31 71 28 357 17 31 29 1 328 288 302 343 16 27 17 10 13 14 26 114 38 11 52 63 21 201 272 295 312 68 352 353 6 358 350 18 84 128 185 152 129 185 237 167 157 174 181 170 158 143 135 132 131 129 126 125 125 125 128 129 129
35 16 21 16 338 243 352 342 359 50 87 99 91 93 52 50 46 30 24 38 34 33 52 32 15 30 44 60 100 43 1 27 26 357 331 334 323 336 353 2 15 14 12 15 18 44 114 47 345 347 12 10 23 20 7 30 84 19 26 35 16 358 22 91 119 157 140 142 190 184 168 166 173 167 157 150 144 137 135 136 135 132 129 128 127 127 128 129
35 11 4 9 309 225 278 302 313 64 65 64 61 61 103 82 71 24 332 39 28 10 51 77 352 2 34 52 91 80 14 57 40 340 325 351 344 1 9 343 342 4 10 14 18 41 105 76 352 330 354 10 19 21 17 32 46 23 15 28 28 13 36 78 78 74 78 92 144 146 142 132 148 148 139 142 143 136 132 134 135 133 131 130 127 125 124 128
47 35 342 345 310 286 324 330 74 89 44 35 64 64 101 96 98 88 30 58 47 338 34 96 304 4 57 57 74 84 138 146 132 329 319 25 353 2 30 285 293 352 7 10 353 7 68 101 64 4 8 359 8 14 6 8 40 37 14 11 13 11 29 61 82 85 73 78 107 118 118 95 210 145 136 141 143 135 132 133 134 134 134 130 127 124 123 125
68 41 355 343 322 335 346 351 66 87 45 42 96 108 76 92 140 128 58 49 95 136 103 139 160 71 50 46 54 44 280 171 183 279 285 294 332 7 29 283 254 349 4 5 348 358 45 94 92 46 44 332 346 2 348 337 22 31 15 5 358 346 345 30 355 173 122 122 115 111 128 168 186 149 137 141 143 137 136 136 134 135 136 132 129 126 125 124
89 55 349 334 303 346 356 345 12 69 94 221 145 116 79 41 111 109 91 44 63 103 122 137 128 75 35 33 24 340 333 338 327 327 337 347 67 108 99 75 68 56 13 -0 14 2 28 92 99 74 93 285 328 353 347 2 33 13 349 352 337 312 310 1 359 4 112 134 136 154 170 158 156 148 139 142 146 143 143 142 141 141 138 134 132 128 125 124
Height
1515 1514 1513 1512 1511 1511 1510 1509 1508 1508 1508 1507 1506 1505 1504 1504 1503 1502 1501 1500 1499 1498 1498 1497 1497 1497 1496 1496 1496 1495 1495 1494 1494 1493 1491 1490 1492 1493 1493 1495 1496 1497 1499 1500 1501 1502 1503 1504 1506 1508 1509 1510 1511 1512 1513 1514 1515 1516 1518 1522 1522 1518 1515 1511 1511 1514 1513 1515 1518 1518 1519 1519 1520 1523 1524 1526 1528 1528 1530 1533 1534 1534 1536 1539 1541 1543 1546 1547
1514 1513 1512 1512 1511 1510 1509 1508 1507 1507 1506 1506 1505 1505 1504 1503 1502 1501 1500 1499 1498 1498 1497 1497 1496 1496 1496 1495 1495 1494 1494 1493 1492 1490 1489 1489 1490 1491 1492 1494 1495 1496 1497 1499 1500 1502 1503 1504 1506 1507 1509 1510 1511 1511 1512 1513 1514 1515 1517 1521 1518 1512 1509 1505 1506 1510 1511 1514 1516 1518 1519 1520 1520 1522 1523 1526 1529 1529 1531 1534 1534 1535 1538 1541 1543 1545 1547 1549
1513 1512 1512 1511 1510 1509 1508 1507 1506 1506 1505 1505 1504 1504 1503 1502 1501 1500 1500 1499 1498 1497 1496 1496 1495 1495 1495 1495 1494 1494 1493 1492 1490 1487 1487 1488 1489 1489 1491 1493 1494 1495 1497 1499 1501 1502 1503 1505 1506 1507 1509 1510 1510 1511 1512 1512 1513 1513 1516 1520 1514 1506 1505 1505 1506 1509 1511 1513 1514 1517 1519 1520 1522 1522 1524 1525 1529 1531 1531 1533 1534 1534 1538 1540 1543 1546 1548 1550
1512 1511 1511 1510 1509 1508 1507 1506 1505 1505 1504 1504 1503 1503 1502 1501 1500 1499 1499 1498 1497 1496 1496 1495 1494 1494 1494 1494 1494 1493 1492 1491 1487 1486 1486 1487 1487 1488 1490 1492 1493 1494 1497 1498 1500 1502 1504 1505 1507 1507 1509 1510 1510 1511 1511 1511 1512 1512 1514 1516 1509 1504 1506 1507 1507 1509 1513 1514 1513 1516 1519 1522 1523 1524 1525 1525 1529 1533 1532 1533 1533 1532 1536 1539 1542 1545 1548 1550
1511 1510 1510 1509 1508 1507 1506 1505 1504 1504 1503 1503 1502 1501 1501 1500 1499 1498 1498 1497 1496 1495 1495 1495 1494 1493 1493 1493 1493 1492 1493 1491 1486 1485 1486 1486 1487 1487 1489 1491 1492 1494 1497 1498 1499 1501 1503 1505 1506 1508 1509 1509 1510 1511 1509 1509 1510 1511 1509 1508 1506 1505 1508 1509 1508 1511 1514 1514 1515 1517 1520 1523 1524 1525 1527 1527 1529 1532 1531 1533 1534 1533 1535 1539 1542 1545 1548 1550
1510 1509 1509 1508 1507 1506 1505 1504 1504 1503 1502 1502 1501 1500 1500 1499 1498 1497 1497 1496 1495 1494 1494 1493 1493 1492 1492 1492 1492 1492 1493 1490 1485 1485 1486 1486 1486 1487 1488 1490 1491 1494 1496 1497 1498 1500 1502 1503 1506 1507 1508 1508 1509 1509 1507 1507 1509 1511 1508 1505 1506 1506 1507 1509 1510 1512 1513 1514 1517 1519 1521 1523 1525 1527 1529 1530 1531 1532 1533 1534 1536 1536 1538 1541 1543 1545 1548 1550
1510 1509 1508 1507 1506 1505 1504 1503 1502 1502 1501 1501 1500 1499 1499 1498 1497 1496 1496 1495 1494 1494 1493 1492 1492 1491 1491 1492 1492 1491 1491 1487 1485 1486 1486 1486 1486 1486 1488 1489 1491 1493 1494 1496 1497 1498 1500 1502 1504 1505 1507 1508 1508 1507 1506 1506 1507 1510 1508 1505 1506 1507 1507 1509 1510 1513 1514 1516 1518 1520 1522 1524 1526 1528 1530 1532 1533 1534 1535 1536 1538 1540 1541 1543 1546 1547 1549 1551
1510 1509 1508 1506 1505 1504 1503 1502 1501 1501 1500 1500 1499 1498 1498 1497 1496 1495 1495 1494 1493 1493 1492 1491 1491 1491 1491 1491 1491 1491 1489 1486 1485 1486 1486 1486 1486 1486 1487 1489 1490 1492 1493 1495 1496 1498 1500 1501 1504 1505 1508 1508 1506 1505 1505 1506 1508 1508 1508 1505 1506 1508 1509 1510 1511 1514 1516 1517 1520 1521 1524 1526 1527 1529 1531 1533 1534 1535 1537 1538 1540 1542 1544 1545 1547 1549 1550 1552
1510 1508 1507 1506 1505 1504 1502 1501 1500 1500 1499 1499 1498 1498 1497 1496 1496 1495 1494 1493 1492 1492 1491 1490 1490 1490 1490 1490 1491 1490 1487 1485 1486 1486 1486 1487 1486 1487 1488 1488 1490 1491 1493 1495 1496 1498 1499 1500 1503 1504 1507 1506 1505 1505 1503 1508 1509 1505 1505 1505 1505 1508 1510 1511 1511 1514 1516 1518 1520 1522 1525 1528 1529 1530 1532 1533 1532 1535 1538 1540 1542 1543 1545 1547 1548 1550 1551 1553
1510 1508 1506 1505 1504 1503 1502 1501 1500 1499 1499 1498 1498 1497 1497 1496 1495 1494 1494 1492 1491 1491 1490 1490 1489 1489 1489 1489 1490 1489 1485 1484 1486 1486 1487 1487 1487 1487 1488 1489 1490 1491 1492 1494 1495 1496 1498 1500 1503 1505 1506 1505 1504 1504 1503 1506 1505 1501 1503 1505 1505 1508 1510 1511 1512 1513 1516 1519 1521 1521 1525 1528 1528 1529 1533 1534 1533 1535 1539 1541 1543 1544 1546 1547 1549 1551 1552 1554
1510 1508 1506 1504 1503 1503 1502 1501 1500 1499 1498 1498 1497 1497 1496 1496 1495 1494 1493 1492 1491 1490 1489 1489 1488 1488 1489 1489 1489 1487 1484 1484 1485 1485 1487 1486 1486 1487 1487 1488 1489 1490 1492 1493 1494 1496 1498 1501 1504 1505 1506 1505 1503 1502 1501 1501 1501 1500 1502 1506 1508 1509 1511 1512 1512 1514 1516 1522 1523 1521 1526 1529 1528 1530 1531 1533 1534 1537 1539 1542 1544 1546 1547 1548 1550 1552 1553 1555
1511 1509 1507 1505 1503 1502 1502 1501 1500 1499 1498 1498 1498 1497 1497 1496 1495 1494 1493 1492 1490 1489 1489 1488 1488 1488 1488 1488 1487 1485 1483 1484 1484 1485 1486 1486 1486 1486 1487 1488 1489 1490 1491 1493 1494 1496 1499 1502 1503 1505 1505 1504 1504 1502 1501 1500 1500 1500 1500 1509 1514 1511 1514 1513 1510 1513 1517 1523 1523 1521 1531 1535 1531 1531 1531 1533 1535 1538 1540 1543 1545 1547 1548 1549 1550 1552 1554 1556
1512 1510 1508 1506 1504 1502 1502 1501 1500 1500 1499 1498 1498 1497 1497 1496 1495 1494 1492 1491 1490 1489 1488 1488 1488 1488 1488 1486 1483 1483 1483 1483 1483 1484 1484 1485 1486 1485 1486 1487 1488 1490 1492 1494 1496 1498 1500 1502 1503 1504 1504 1505 1504 1503 1501 1498 1499 1501 1501 1508 1516 1519 1519 1514 1510 1511 1515 1524 1522 1520 1535 1542 1533 1530 1531 1533 1535 1537 1541 1542 1545 1547 1549 1550 1551 1552 1554 1556
1512 1511 1509 1507 1505 1503 1502 1501 1501 1500 1499 1499 1498 1497 1497 1496 1495 1493 1492 1491 1490 1489 1489 1488 1488 1488 1488 1484 1481 1482 1483 1482 1483 1483 1484 1484 1485 1485 1485 1486 1487 1489 1491 1494 1497 1499 1501 1502 1504 1504 1504 1504 1503 1502 1502 1499 1500 1504 1507 1511 1516 1524 1523 1514 1512 1513 1516 1524 1522 1521 1535 1541 1534 1531 1531 1533 1534 1536 1540 1542 1544 1547 1549 1550 1551 1552 1554 1556
1513 1511 1509 1507 1505 1504 1502 1501 1501 1500 1500 1499 1498 1497 1496 1495 1494 1493 1492 1491 1490 1490 1489 1489 1488 1488 1487 1482 1480 1481 1481 1482 1482 1483 1484 1484 1484 1484 1484 1485 1487 1488 1490 1493 1496 1499 1501 1503 1504 1504 1503 1502 1502 1504 1505 1504 1504 1504 1514 1522 1520 1521 1522 1515 1513 1513 1515 1521 1520 1522 1534 1538 1534 1532 1531 1533 1534 1535 1539 1541 1543 1546 1548 1550 1551 1552 1554 1556
1513 1511 1509 1508 1506 1504 1503 1502 1501 1500 1500 1499 1498 1497 1496 1495 1493 1493 1492 1491 1490 1489 1489 1489 1488 1488 1487 1482 1480 1481 1481 1482 1483 1483 1484 1484 1484 1484 1484 1485 1486 1488 1490 1492 1495 1498 1501 1502 1502 1503 1502 1501 1503 1506 1507 1511 1513 1508 1513 1524 1522 1521 1524 1521 1515 1513 1514 1518 1520 1522 1532 1537 1533 1531 1532 1533 1535 1536 1538 1541 1542 1545 1547 1548 1550 1552 1554 1556
1512 1511 1509 1508 1506 1504 1503 1502 1501 1501 1500 1499 1498 1497 1496 1495 1493 1492 1492 1491 1490 1489 1489 1488 1487 1487 1484 1480 1480 1481 1481 1482 1483 1483 1483 1483 1484 1484 1485 1486 1486 1489 1490 1492 1495 1497 1500 1502 1501 1502 1501 1501 1502 1503 1511 1521 1522 1515 1513 1519 1519 1519 1524 1524 1519 1514 1514 1518 1522 1523 1528 1532 1530 1531 1533 1534 1536 1537 1537 1539 1541 1544 1546 1547 1549 1551 1553 1555
1512 1511 1509 1508 1506 1505 1503 1503 1502 1501 1500 1499 1498 1497 1496 1494 1493 1492 1491 1491 1490 1489 1489 1488 1488 1487 1483 1479 1479 1480 1481 1481 1481 1482 1482 1483 1484 1484 1485 1486 1486 1489 1490 1492 1495 1496 1499 1500 1500 1502 1501 1501 1501 1503 1513 1518 1516 1515 1516 1518 1520 1519 1522 1523 1519 1514 1514 1519 1523 1525 1529 1531 1530 1531 1534 1535 1536 1537 1536 1538 1540 1542 1545 1547 1548 1550 1552 1554
1512 1510 1509 1508 1506 1505 1504 1503 1502 1501 1500 1499 1498 1497 1496 1494 1493 1491 1490 1490 1489 1488 1488 1486 1486 1487 1484 1480 1479 1479 1479 1479 1480 1480 1481 1482 1484 1485 1486 1487 1488 1488 1490 1493 1494 1495 1497 1499 1500 1503 1502 1501 1500 1502 1507 1507 1506 1510 1512 1515 1520 1521 1520 1518 1515 1510 1511 1520 1525 1526 1529 1531 1531 1532 1533 1534 1535 1536 1537 1537 1539 1542 1543 1546 1547 1549 1551 1553
1511 1510 1509 1508 1506 1505 1504 1503 1503 1501 1500 1499 1498 1497 1495 1494 1492 1491 1490 1488 1487 1486 1485 1484 1484 1484 1482 1479 1478 1479 1478 1478 1479 1480 1481 1482 1483 1485 1486 1488 1488 1488 1490 1492 1494 1494 1495 1500 1501 1500 1500 1498 1498 1500 1502 1502 1504 1507 1509 1512 1515 1518 1518 1514 1513 1511 1509 1521 1527 1525 1528 1529 1530 1531 1531 1533 1535 1536 1538 1538 1538 1540 1542 1544 1546 1548 1550 1552
1511 1510 1509 1507 1506 1505 1504 1503 1502 1501 1500 1499 1498 1497 1496 1495 1494 1492 1489 1486 1483 1484 1483 1482 1482 1482 1479 1478 1478 1478 1479 1478 1478 1479 1481 1482 1483 1484 1486 1487 1488 1490 1490 1491 1493 1492 1494 1500 1498 1495 1496 1496 1497 1499 1500 1503 1504 1506 1509 1513 1515 1516 1517 1513 1513 1512 1510 1520 1528 1526 1528 1530 1529 1530 1531 1533 1535 1534 1536 1537 1538 1539 1541 1543 1545 1547 1549 1551
1510 1509 1508 1507 1506 1505 1504 1503 1502 1501 1500 1499 1498 1497 1496 1496 1495 1494 1491 1487 1482 1481 1482 1480 1481 1480 1477 1477 1478 1478 1480 1479 1478 1479 1480 1482 1483 1484 1485 1486 1489 1490 1490 1491 1493 1495 1497 1498 1494 1492 1493 1494 1496 1497 1500 1503 1503 1506 1508 1511 1516 1516 1516 1516 1513 1512 1512 1520 1529 1528 1530 1533 1530 1529 1531 1533 1533 1533 1535 1536 1537 1539 1540 1542 1544 1546 1548 1550
1510 1508 1508 1507 1506 1504 1503 1502 1501 1500 1500 1499 1498 1497 1496 1496 1495 1493 1493 1490 1484 1480 1480 1480 1479 1479 1478 1478 1478 1478 1479 1479 1479 1478 1479 1481 1482 1483 1484 1486 1489 1490 1491 1492 1495 1499 1500 1495 1490 1490 1492 1494 1496 1497 1500 1503 1503 1506 1508 1510 1514 1513 1515 1522 1519 1515 1514 1518 1525 1528 1532 1535 1532 1530 1531 1532 1534 1534 1536 1537 1538 1539 1539 1541 1543 1544 1546 1548
1509 1508 1507 1506 1505 1504 1503 1501 1501 1500 1499 1498 1498 1497 1496 1495 1494 1493 1492 1491 1487 1481 1479 1480 1479 1479 1479 1478 1478 1479 1478 1478 1478 1478 1479 1481 1481 1483 1484 1485 1488 1491 1491 1492 1493 1497 1496 1490 1487 1489 1492 1493 1496 1498 1500 1503 1505 1506 1506 1507 1510 1510 1510 1516 1517 1515 1517 1520 1521 1526 1539 1540 1533 1534 1533 1531 1534 1535 1536 1538 1539 1539 1539 1540 1542 1543 1545 1546
1508 1507 1506 1505 1504 1503 1502 1501 1500 1499 1499 1498 1497 1497 1496 1495 1494 1493 1492 1492 1490 1484 1480 1481 1479 1478 1478 1478 1478 1478 1478 1478 1478 1478 1479 1480 1481 1483 1484 1484 1488 1491 1492 1492 1494 1496 1493 1488 1488 1491 1493 1494 1497 1498 1499 1502 1505 1506 1503 1500 1503 1507 1508 1511 1513 1517 1527 1534 1524 1524 1546 1548 1534 1533 1535 1532 1533 1534 1535 1537 1538 1538 1538 1539 1540 1542 1543 1545
1507 1506 1505 1504 1504 1502 1502 1500 1499 1499 1498 1497 1497 1496 1495 1494 1493 1492 1492 1496 1495 1486 1482 1482 1480 1479 1477 1478 1478 1478 1480 1479 1477 1478 1479 1480 1482 1482 1485 1486 1486 1490 1491 1491 1493 1493 1490 1487 1488 1491 1494 1495 1497 1499 1497 1499 1506 1509 1500 1494 1498 1503 1507 1510 1513 1519 1531 1535 1523 1518 1539 1549 1540 1535 1533 1533 1534 1533 1534 1536 1536 1536 1535 1537 1539 1540 1542 1543
1506 1505 1504 1504 1502 1502 1501 1499 1499 1499 1497 1497 1496 1495 1495 1493 1493 1492 1494 1503 1501 1487 1483 1483 1480 1479 1478 1478 1477 1479 1484 1482 1476 1478 1478 1480 1482 1481 1486 1488 1487 1489 1487 1490 1497 1493 1487 1488 1490 1491 1494 1497 1499 1498 1495 1496 1505 1507 1495 1492 1498 1501 1506 1508 1510 1517 1521 1522 1523 1520 1527 1541 1544 1536 1530 1532 1535 1534 1534 1534 1534 1533 1533 1535 1537 1539 1541 1541
1505 1504 1503 1503 1501 1501 1500 1499 1499 1497 1497 1496 1494 1494 1494 1492 1492 1491 1498 1512 1504 1486 1483 1482 1479 1479 1478 1477 1478 1478 1481 1480 1479 1480 1478 1480 1482 1481 1485 1487 1488 1489 1485 1491 1501 1493 1485 1488 1490 1491 1495 1498 1496 1494 1492 1494 1501 1498 1490 1492 1496 1496 1501 1504 1508 1515 1514 1521 1535 1530 1524 1537 1545 1536 1528 1531 1535 1535 1533 1531 1530 1530 1531 1533 1535 1537 1539 1540
1504 1503 1502 1502 1501 1500 1499 1498 1497 1497 1496 1495 1493 1494 1491 1490 1491 1490 1501 1512 1499 1484 1484 1482 1479 1479 1477 1477 1478 1477 1478 1478 1480 1480 1478 1480 1482 1481 1485 1485 1485 1488 1486 1489 1495 1490 1485 1486 1486 1488 1493 1493 1491 1489 1489 1493 1496 1491 1488 1492 1493 1496 1500 1504 1512 1515 1515 1527 1537 1530 1524 1534 1543 1538 1532 1534 1534 1529 1527 1526 1526 1527 1528 1530 1532 1534 1536 1538
1503 1501 1501 1500 1500 1499 1498 1497 1496 1496 1495 1494 1493 1492 1490 1490 1490 1498 1512 1511 1495 1486 1483 1481 1479 1478 1477 1478 1478 1477 1478 1478 1478 1478 1478 1480 1481 1482 1483 1483 1484 1486 1488 1488 1489 1487 1483 1482 1483 1484 1486 1485 1485 1486 1486 1488 1489 1487 1490 1496 1499 1503 1504 1511 1519 1518 1526 1536 1529 1521 1521 1527 1537 1537 1530 1526 1519 1515 1518 1522 1523 1524 1525 1527 1529 1531 1533 1535
1501 1500 1499 1499 1499 1498 1497 1497 1496 1496 1494 1493 1492 1489 1489 1490 1493 1508 1517 1504 1493 1489 1483 1481 1480 1477 1478 1480 1480 1478 1478 1477 1476 1477 1479 1480 1482 1483 1484 1486 1487 1489 1492 1490 1488 1486 1483 1483 1482 1478 1478 1478 1481 1485 1485 1484 1485 1488 1494 1499 1507 1514 1515 1527 1534 1531 1541 1542 1521 1513 1518 1525 1534 1529 1520 1515 1507 1506 1512 1515 1517 1519 1521 1524 1526 1529 1531 1534
1500 1499 1498 1498 1498 1497 1496 1496 1496 1495 1494 1493 1491 1488 1490 1495 1502 1513 1510 1497 1496 1493 1484 1483 1481 1478 1478 1479 1480 1478 1477 1478 1475 1476 1480 1481 1484 1485 1486 1489 1489 1495 1500 1496 1491 1487 1482 1480 1478 1475 1474 1474 1480 1487 1487 1486 1488 1491 1496 1502 1516 1529 1534 1546 1553 1546 1545 1535 1515 1511 1518 1527 1527 1514 1509 1510 1506 1506 1507 1508 1513 1516 1519 1522 1524 1527 1530 1533
1498 1497 1497 1497 1496 1496 1496 1496 1496 1496 1494 1492 1491 1487 1490 1501 1511 1511 1503 1498 1498 1491 1484 1484 1481 1478 1479 1481 1482 1479 1477 1478 1476 1477 1480 1481 1485 1486 1486 1487 1486 1492 1498 1496 1494 1491 1485 1480 1475 1475 1474 1470 1476 1485 1488 1490 1490 1492 1497 1503 1517 1532 1545 1561 1564 1556 1544 1526 1511 1510 1518 1527 1520 1506 1505 1505 1503 1504 1505 1507 1512 1515 1518 1521 1523 1527 1530 1533
1497 1496 1496 1496 1496 1496 1496 1496 1496 1495 1494 1492 1491 1488 1495 1509 1511 1505 1501 1499 1493 1487 1485 1485 1482 1481 1482 1485 1485 1480 1480 1480 1477 1481 1484 1484 1489 1492 1490 1488 1486 1487 1490 1492 1493 1492 1494 1490 1478 1474 1474 1469 1471 1476 1479 1483 1487 1488 1489 1495 1506 1515 1531 1550 1556 1551 1540 1525 1516 1515 1522 1528 1518 1508 1504 1500 1498 1501 1503 1507 1510 1514 1518 1521 1524 1528 1531 1535
1496 1495 1496 1495 1496 1496 1496 1497 1496 1496 1496 1493 1491 1494 1504 1513 1509 1502 1500 1495 1490 1488 1486 1485 1484 1486 1488 1487 1484 1480 1481 1484 1482 1486 1490 1490 1494 1495 1493 1490 1487 1486 1488 1494 1493 1490 1496 1491 1474 1468 1468 1466 1469 1469 1469 1477 1485 1487 1484 1491 1500 1498 1505 1522 1529 1526 1523 1526 1527 1523 1523 1522 1513 1506 1500 1497 1499 1500 1503 1507 1509 1513 1518 1521 1526 1529 1532 1536
1495 1495 1496 1495 1496 1496 1496 1497 1496 1496 1496 1494 1496 1502 1506 1506 1502 1499 1496 1491 1490 1490 1487 1487 1489 1492 1494 1491 1488 1484 1482 1483 1485 1490 1495 1494 1494 1494 1492 1490 1487 1486 1488 1492 1490 1489 1495 1488 1471 1467 1466 1463 1466 1465 1465 1473 1482 1486 1487 1489 1490 1484 1488 1504 1515 1514 1514 1527 1533 1527 1525 1520 1512 1509 1503 1500 1503 1504 1505 1508 1509 1513 1517 1522 1527 1530 1534 1537
1496 1495 1496 1496 1496 1496 1496 1497 1497 1497 1496 1496 1502 1506 1502 1498 1496 1494 1491 1488 1490 1489 1489 1495 1496 1497 1500 1498 1495 1490 1485 1485 1487 1491 1496 1496 1494 1493 1491 1489 1486 1486 1486 1487 1486 1486 1492 1488 1472 1468 1469 1464 1462 1463 1463 1465 1471 1481 1487 1483 1481 1483 1486 1494 1512 1523 1526 1536 1536 1529 1529 1528 1523 1519 1511 1506 1508 1508 1508 1509 1511 1515 1518 1522 1526 1529 1534 1537
1496 1496 1496 1496 1496 1496 1496 1497 1497 1497 1497 1499 1504 1504 1499 1496 1493 1491 1490 1488 1490 1489 1492 1500 1499 1497 1500 1501 1498 1492 1488 1490 1491 1493 1497 1497 1497 1494 1492 1489 1486 1484 1483 1483 1485 1484 1487 1490 1477 1468 1471 1467 1461 1465 1470 1467 1465 1471 1476 1474 1478 1492 1495 1493 1507 1523 1531 1543 1544 1534 1531 1530 1527 1523 1517 1514 1514 1512 1511 1511 1513 1516 1519 1523 1525 1528 1531 1534
1496 1496 1496 1496 1497 1497 1497 1497 1497 1498 1499 1502 1506 1503 1498 1495 1492 1490 1490 1489 1490 1491 1495 1498 1497 1496 1498 1498 1498 1493 1490 1493 1494 1496 1498 1500 1499 1494 1491 1491 1487 1484 1483 1481 1484 1484 1484 1490 1483 1469 1468 1469 1465 1470 1477 1476 1470 1467 1471 1474 1477 1485 1491 1491 1498 1508 1522 1539 1545 1539 1536 1530 1525 1522 1518 1518 1517 1513 1513 1514 1515 1517 1519 1522 1524 1526 1529 1531
1496 1496 1496 1497 1497 1497 1497 1498 1498 1499 1500 1503 1504 1501 1497 1495 1492 1490 1489 1489 1489 1491 1494 1496 1495 1496 1497 1496 1496 1494 1493 1494 1494 1496 1498 1499 1499 1495 1491 1491 1488 1485 1483 1481 1483 1483 1482 1487 1487 1475 1468 1471 1474 1475 1475 1476 1475 1474 1477 1481 1481 1482 1484 1489 1495 1500 1511 1529 1538 1542 1541 1531 1521 1519 1517 1517 1516 1514 1514 1515 1517 1519 1519 1521 1522 1524 1526 1529
1497 1497 1497 1496 1497 1497 1497 1498 1499 1500 1501 1502 1501 1499 1496 1494 1492 1490 1490 1489 1490 1490 1492 1493 1494 1496 1497 1497 1497 1495 1494 1496 1496 1496 1498 1497 1498 1497 1492 1490 1489 1486 1485 1483 1483 1484 1484 1487 1490 1484 1477 1476 1476 1473 1471 1471 1472 1473 1478 1481 1483 1483 1485 1494 1504 1505 1505 1514 1524 1531 1533 1527 1520 1516 1514 1515 1516 1516 1515 1515 1518 1520 1520 1521 1523 1524 1526 1528
1498 1498 1497 1496 1496 1497 1497 1499 1500 1500 1500 1500 1499 1497 1495 1494 1493 1492 1491 1490 1491 1491 1491 1492 1493 1495 1496 1497 1497 1495 1496 1499 1499 1497 1498 1497 1496 1496 1493 1489 1488 1486 1486 1487 1487 1485 1485 1488 1490 1487 1482 1479 1476 1472 1471 1471 1469 1470 1475 1479 1481 1482 1484 1492 1501 1505 1507 1511 1514 1519 1525 1524 1518 1514 1514 1515 1516 1516 1518 1517 1518 1521 1521 1521 1523 1524 1526 1527
1498 1498 1497 1496 1496 1497 1498 1501 1501 1500 1499 1497 1496 1496 1495 1494 1494 1494 1493 1492 1492 1492 1492 1493 1494 1495 1496 1496 1496 1497 1498 1502 1502 1499 1498 1498 1495 1495 1493 1489 1487 1486 1486 1489 1488 1485 1486 1491 1492 1488 1483 1478 1473 1470 1469 1468 1471 1475 1478 1478 1479 1480 1481 1485 1490 1495 1506 1513 1513 1519 1529 1526 1517 1513 1515 1516 1516 1518 1520 1519 1519 1521 1522 1522 1523 1524 1525 1527
1497 1497 1497 1496 1497 1497 1499 1501 1500 1499 1498 1497 1496 1496 1495 1495 1496 1496 1496 1496 1495 1494 1495 1496 1495 1496 1496 1495 1496 1498 1499 1502 1503 1500 1500 1500 1497 1495 1492 1489 1489 1488 1488 1489 1488 1486 1490 1495 1496 1495 1492 1488 1484 1482 1480 1477 1478 1483 1484 1481 1480 1480 1480 1484 1487 1491 1503 1512 1510 1515 1530 1529 1518 1515 1517 1517 1517 1519 1521 1521 1521 1521 1523 1523 1524 1524 1526 1528
1497 1497 1497 1497 1497 1498 1499 1498 1498 1498 1498 1498 1498 1498 1496 1497 1498 1498 1498 1498 1497 1496 1497 1498 1497 1496 1496 1496 1497 1500 1499 1499 1502 1502 1501 1501 1498 1495 1493 1492 1491 1490 1489 1489 1486 1486 1492 1496 1498 1500 1505 1508 1508 1504 1499 1493 1488 1487 1486 1483 1481 1481 1481 1483 1489 1493 1503 1511 1509 1512 1525 1527 1519 1517 1519 1519 1519 1521 1522 1523 1523 1523 1524 1525 1526 1527 1528 1529
1498 1499 1498 1497 1497 1498 1498 1496 1496 1496 1497 1498 1500 1500 1500 1500 1499 1498 1498 1499 1499 1498 1499 1500 1498 1497 1498 1499 1500 1503 1501 1500 1501 1503 1504 1503 1500 1497 1495 1494 1493 1491 1490 1488 1485 1486 1492 1497 1500 1503 1507 1510 1509 1504 1498 1495 1494 1492 1489 1485 1483 1483 1482 1483 1489 1492 1498 1508 1513 1512 1517 1522 1521 1520 1520 1520 1520 1521 1523 1524 1525 1525 1526 1527 1528 1529 1529 1530
1500 1502 1502 1501 1500 1499 1498 1496 1496 1495 1495 1497 1500 1502 1502 1502 1501 1500 1499 1500 1500 1499 1500 1502 1500 1500 1502 1503 1504 1506 1505 1504 1503 1505 1506 1505 1502 1499 1496 1494 1494 1493 1491 1489 1487 1488 1494 1502 1504 1504 1505 1504 1501 1498 1493 1492 1495 1495 1492 1488 1485 1484 1483 1483 1487 1489 1493 1503 1513 1512 1511 1515 1518 1517 1518 1520 1521 1521 1523 1524 1525 1526 1528 1529 1530 1531 1531 1532
1502 1503 1504 1504 1504 1503 1501 1498 1497 1496 1496 1497 1500 1502 1504 1504 1503 1504 1502 1501 1501 1501 1502 1505 1505 1505 1505 1504 1505 1509 1509 1508 1508 1509 1508 1507 1504 1501 1498 1495 1495 1495 1493 1492 1491 1491 1498 1508 1508 1505 1504 1501 1498 1496 1493 1493 1495 1495 1493 1491 1488 1487 1485 1485 1489 1492 1491 1492 1499 1506 1510 1512 1513 1514 1516 1519 1520 1521 1523 1524 1525 1527 1529 1531 1532 1533 1533 1534
1503 1504 1504 1504 1504 1504 1502 1500 1498 1498 1497 1498 1500 1503 1504 1505 1505 1505 1504 1503 1504 1504 1504 1508 1510 1508 1506 1505 1506 1510 1512 1512 1513 1512 1509 1508 1507 1505 1504 1501 1498 1497 1495 1495 1494 1495 1501 1509 1510 1508 1505 1501 1499 1498 1496 1495 1495 1495 1495 1493 1491 1491 1490 1489 1494 1496 1493 1492 1495 1502 1510 1513 1512 1513 1515 1518 1520 1522 1523 1525 1527 1528 1531 1532 1533 1534 1535 1536
1504 1505 1505 1504 1504 1502 1500 1499 1498 1498 1499 1500 1502 1503 1504 1505 1506 1505 1504 1505 1507 1507 1506 1509 1511 1509 1508 1507 1507 1511 1512 1511 1513 1512 1510 1510 1508 1507 1508 1507 1503 1500 1498 1498 1498 1496 1500 1509 1512 1510 1507 1504 1503 1500 1498 1499 1499 1497 1497 1495 1494 1495 1493 1494 1497 1497 1498 1503 1503 1505 1512 1516 1514 1512 1514 1518 1521 1522 1523 1526 1528 1529 1531 1533 1534 1536 1537 1538
1505 1506 1506 1505 1504 1502 1500 1500 1499 1500 1500 1501 1503 1504 1504 1505 1505 1505 1505 1507 1507 1508 1507 1509 1510 1509 1509 1509 1509 1510 1511 1510 1510 1510 1509 1509 1508 1507 1507 1506 1505 1503 1502 1502 1502 1500 1502 1509 1512 1511 1512 1511 1508 1506 1504 1502 1498 1497 1499 1500 1501 1501 1497 1496 1497 1496 1498 1505 1509 1512 1515 1515 1512 1511 1515 1518 1521 1522 1524 1526 1528 1530 1532 1533 1535 1537 1538 1539
1506 1506 1506 1506 1504 1503 1502 1502 1501 1502 1503 1503 1503 1503 1505 1506 1505 1504 1507 1509 1507 1507 1508 1508 1508 1509 1510 1511 1510 1510 1509 1509 1509 1508 1508 1508 1507 1506 1506 1505 1504 1504 1504 1504 1505 1505 1506 1508 1511 1514 1515 1514 1513 1511 1505 1502 1506 1510 1508 1506 1507 1506 1500 1497 1498 1498 1497 1500 1505 1508 1507 1507 1508 1510 1514 1518 1521 1523 1524 1525 1527 1529 1532 1534 1535 1537 1538 1540